,,Stat6,,Stat2,,Stat8,,Stat9,,Stat10,,Wind1,,Wind1,
time,status,PA1M_AVG,status,PR1M_SUM,status,RH1M_AVG,status,SR1M_AVG,status,TA1M_AVG,status,W1dAve1m,status,W1sAve1m,
2003-10-04, 00:00:00,VALID,917.487,VALID,0,VALID,100,VALID,0.0169808,VALID,19.769,VALID,153,VALID,1.96421,
2003-10-04, 00:01:00,VALID,917.479,VALID,0,VALID,100,VALID,0,VALID,19.772,VALID,136,VALID,1.03551,
2003-10-04, 00:02:00,VALID,917.469,VALID,0,VALID,100,VALID,0.0169808,VALID,19.7919,VALID,142,VALID,1.74328,
2003-10-04, 00:03:00,VALID,917.454,VALID,0,VALID,100,VALID,-0.0169808,VALID,19.7817,VALID,137,VALID,2.27024,
2003-10-04, 00:04:00,VALID,917.455,VALID,0,VALID,100,VALID,0,VALID,19.7922,VALID,125,VALID,1.82332,
2003-10-04, 00:05:00,VALID,917.428,VALID,0,VALID,100,VALID,0,VALID,19.7887,VALID,136,VALID,1.52397,
2003-10-04, 00:06:00,VALID,917.399,VALID,0,VALID,100,VALID,0.0169808,VALID,19.7949,VALID,142,VALID,1.9295,
2003-10-04, 00:07:00,VALID,917.367,VALID,0,VALID,100,VALID,0,VALID,19.7981,VALID,149,VALID,2.38281,
2003-10-04, 00:08:00,VALID,917.37,VALID,0,VALID,100,VALID,0,VALID,19.8113,VALID,140,VALID,1.54578,
2003-10-04, 00:09:00,VALID,917.372,VALID,0,VALID,100,VALID,0.0169808,VALID,19.8011,VALID,134,VALID,1.74037,
2003-10-04, 00:10:00,VALID,917.367,VALID,0.2,VALID,100,VALID,0,VALID,19.8138,VALID,138,VALID,2.1801,
2003-10-04, 00:11:00,VALID,917.372,VALID,0,VALID,100,VALID,0,VALID,19.8274,VALID,136,VALID,1.96271,
2003-10-04, 00:12:00,VALID,917.361,VALID,0,VALID,100,VALID,0,VALID,19.8237,VALID,140,VALID,2.03871,
2003-10-04, 00:13:00,VALID,917.363,VALID,0,VALID,100,VALID,0.0169808,VALID,19.8371,VALID,128,VALID,1.9282,
2003-10-04, 00:14:00,VALID,917.342,VALID,0,VALID,100,VALID,0,VALID,19.8538,VALID,134,VALID,1.86577,
2003-10-04, 00:15:00,VALID,917.328,VALID,0,VALID,100,VALID,0,VALID,19.857,VALID,142,VALID,1.69493,
2003-10-04, 00:16:00,VALID,917.327,VALID,0,VALID,100,VALID,-0.0169808,VALID,19.8436,VALID,132,VALID,1.44052,
2003-10-04, 00:17:00,VALID,917.316,VALID,0,VALID,100,VALID,0,VALID,19.86,VALID,140,VALID,1.97035,
2003-10-04, 00:18:00,VALID,917.305,VALID,0,VALID,100,VALID,0,VALID,19.8533,VALID,129,VALID,2.63555,
2003-10-04, 00:19:00,VALID,917.289,VALID,0,VALID,100,VALID,-0.0169808,VALID,19.8597,VALID,135,VALID,2.18359,
2003-10-04, 00:20:00,VALID,917.287,VALID,0,VALID,100,VALID,0,VALID,19.863,VALID,121,VALID,2.262,
2003-10-04, 00:21:00,VALID,917.279,VALID,0,VALID,100,VALID,0,VALID,19.8632,VALID,137,VALID,1.80096,
2003-10-04, 00:22:00,VALID,917.267,VALID,0,VALID,100,VALID,-0.0169808,VALID,19.8565,VALID,129,VALID,2.21704,
2003-10-04, 00:23:00,VALID,917.287,VALID,0,VALID,100,VALID,0,VALID,19.8597,VALID,141,VALID,2.26804,
2003-10-04, 00:24:00,VALID,917.281,VALID,0,VALID,100,VALID,-0.0169808,VALID,19.8662,VALID,124,VALID,1.475,
2003-10-04, 00:25:00,VALID,917.278,VALID,0,VALID,100,VALID,0,VALID,19.8622,VALID,134,VALID,2.08394,
2003-10-04, 00:26:00,VALID,917.267,VALID,0,VALID,100,VALID,0.0169808,VALID,19.8627,VALID,130,VALID,2.27363,
2003-10-04, 00:27:00,VALID,917.255,VALID,0,VALID,100,VALID,0,VALID,19.8592,VALID,147,VALID,1.95015,
2003-10-04, 00:28:00,VALID,917.245,VALID,0,VALID,100,VALID,0.0169808,VALID,19.8597,VALID,136,VALID,2.34794,
2003-10-04, 00:29:00,VALID,917.233,VALID,0,VALID,100,VALID,0,VALID,19.853,VALID,128,VALID,1.86615,
2003-10-04, 00:30:00,VALID,917.232,VALID,0,VALID,100,VALID,-0.0169808,VALID,19.8597,VALID,130,VALID,1.81194,
2003-10-04, 00:31:00,VALID,917.219,VALID,0,VALID,100,VALID,0,VALID,19.8528,VALID,129,VALID,1.49419,
2003-10-04, 00:32:00,VALID,917.222,VALID,0,VALID,100,VALID,0,VALID,19.8632,VALID,124,VALID,1.88459,
2003-10-04, 00:33:00,VALID,917.206,VALID,0,VALID,100,VALID,0,VALID,19.8602,VALID,123,VALID,1.92222,
2003-10-04, 00:34:00,VALID,917.188,VALID,0,VALID,100,VALID,0,VALID,19.8339,VALID,122,VALID,1.9933,
2003-10-04, 00:35:00,VALID,917.182,VALID,0,VALID,100,VALID,-0.0169808,VALID,19.8403,VALID,114,VALID,1.55004,
2003-10-04, 00:36:00,VALID,917.173,VALID,0,VALID,100,VALID,0,VALID,19.8406,VALID,114,VALID,1.69271,
2003-10-04, 00:37:00,VALID,917.138,VALID,0,VALID,100,VALID,0,VALID,19.8443,VALID,130,VALID,1.93862,
2003-10-04, 00:38:00,VALID,917.127,VALID,0,VALID,100,VALID,0,VALID,19.8304,VALID,129,VALID,1.78906,
2003-10-04, 00:39:00,VALID,917.11,VALID,0,VALID,100,VALID,0,VALID,19.8272,VALID,133,VALID,2.11168,
2003-10-04, 00:40:00,VALID,917.072,VALID,0,VALID,100,VALID,0.0169808,VALID,19.8207,VALID,135,VALID,2.09748,
2003-10-04, 00:41:00,VALID,917.057,VALID,0,VALID,100,VALID,0.0169808,VALID,19.8242,VALID,129,VALID,1.98597,
2003-10-04, 00:42:00,VALID,917.029,VALID,0,VALID,100,VALID,0,VALID,19.8076,VALID,129,VALID,2.08292,
2003-10-04, 00:43:00,VALID,917.012,VALID,0,VALID,100,VALID,0,VALID,19.8108,VALID,133,VALID,2.00488,
2003-10-04, 00:44:00,VALID,916.983,VALID,0,VALID,100,VALID,0,VALID,19.8048,VALID,131,VALID,1.85714,
2003-10-04, 00:45:00,VALID,916.943,VALID,0,VALID,100,VALID,0,VALID,19.8048,VALID,142,VALID,2.26953,
2003-10-04, 00:46:00,VALID,916.923,VALID,0,VALID,100,VALID,0,VALID,19.8016,VALID,129,VALID,1.99009,
2003-10-04, 00:47:00,VALID,916.902,VALID,0,VALID,100,VALID,0,VALID,19.8043,VALID,124,VALID,2.10212,
2003-10-04, 00:48:00,VALID,916.841,VALID,0,VALID,100,VALID,0,VALID,19.8282,VALID,131,VALID,2.37252,
2003-10-04, 00:49:00,VALID,916.817,VALID,0,VALID,100,VALID,0,VALID,19.817,VALID,134,VALID,2.35212,
2003-10-04, 00:50:00,VALID,916.797,VALID,0,VALID,100,VALID,0,VALID,19.8304,VALID,120,VALID,2.26749,
2003-10-04, 00:51:00,VALID,916.775,VALID,0,VALID,100,VALID,0,VALID,19.8334,VALID,124,VALID,2.27381,
2003-10-04, 00:52:00,VALID,916.744,VALID,0,VALID,100,VALID,-0.0339617,VALID,19.8438,VALID,117,VALID,2.0957,
2003-10-04, 00:53:00,VALID,916.723,VALID,0,VALID,100,VALID,0.0169808,VALID,19.86,VALID,109,VALID,1.88225,
2003-10-04, 00:54:00,VALID,916.691,VALID,0,VALID,100,VALID,-0.0339617,VALID,19.8562,VALID,126,VALID,2.46928,
2003-10-04, 00:55:00,VALID,916.674,VALID,0,VALID,100,VALID,0,VALID,19.8662,VALID,121,VALID,2.32692,
2003-10-04, 00:56:00,VALID,916.641,VALID,0,VALID,100,VALID,0,VALID,19.8625,VALID,120,VALID,3.02865,
2003-10-04, 00:57:00,VALID,916.625,VALID,0,VALID,100,VALID,-0.0169808,VALID,19.8789,VALID,130,VALID,2.76083,
2003-10-04, 00:58:00,VALID,916.596,VALID,0,VALID,100,VALID,0,VALID,19.8955,VALID,144,VALID,2.25345,
2003-10-04, 00:59:00,VALID,916.589,VALID,0,VALID,100,VALID,0,VALID,19.9044,VALID,119,VALID,2.08774,
2003-10-04, 01:00:00,VALID,916.558,VALID,0,VALID,100,VALID,-0.0169808,VALID,19.9139,VALID,123,VALID,2.26708,
2003-10-04, 01:01:00,VALID,916.578,VALID,0,VALID,100,VALID,0,VALID,19.9278,VALID,133,VALID,2.32946,
2003-10-04, 01:02:00,VALID,916.584,VALID,0,VALID,100,VALID,0,VALID,19.9407,VALID,120,VALID,2.82422,
2003-10-04, 01:03:00,VALID,916.556,VALID,0,VALID,100,VALID,0,VALID,19.9434,VALID,137,VALID,1.82511,
2003-10-04, 01:04:00,VALID,916.542,VALID,0,VALID,100,VALID,-0.0169808,VALID,19.9429,VALID,123,VALID,2.44103,
2003-10-04, 01:05:00,VALID,916.539,VALID,0,VALID,99.9944,VALID,-0.0169808,VALID,19.9497,VALID,130,VALID,2.76395,
2003-10-04, 01:06:00,VALID,916.544,VALID,0,VALID,99.9596,VALID,0,VALID,19.9725,VALID,124,VALID,2.26004,
2003-10-04, 01:07:00,VALID,916.517,VALID,0,VALID,99.8858,VALID,0.0169808,VALID,20.0051,VALID,129,VALID,3.36168,
2003-10-04, 01:08:00,VALID,916.508,VALID,0,VALID,99.7675,VALID,0,VALID,20.0406,VALID,118,VALID,2.28888,
2003-10-04, 01:09:00,VALID,916.489,VALID,0,VALID,99.6468,VALID,-0.0169808,VALID,20.089,VALID,117,VALID,1.88711,
2003-10-04, 01:10:00,VALID,916.479,VALID,0,VALID,99.5361,VALID,0,VALID,20.0861,VALID,108,VALID,1.94141,
2003-10-04, 01:11:00,VALID,916.457,VALID,0,VALID,99.5247,VALID,-0.0339617,VALID,20.0761,VALID,123,VALID,2.2411,
2003-10-04, 01:12:00,VALID,916.464,VALID,0,VALID,99.5094,VALID,-0.0339617,VALID,20.05,VALID,123,VALID,2.15244,
2003-10-04, 01:13:00,VALID,916.441,VALID,0,VALID,99.4585,VALID,0,VALID,20.06,VALID,130,VALID,3.13643,
2003-10-04, 01:14:00,VALID,916.426,VALID,0,VALID,99.3835,VALID,0,VALID,20.0856,VALID,128,VALID,2.25608,
2003-10-04, 01:15:00,VALID,916.413,VALID,0,VALID,99.2449,VALID,0,VALID,20.1079,VALID,135,VALID,2.30625,
2003-10-04, 01:16:00,VALID,916.416,VALID,0,VALID,99.0694,VALID,0,VALID,20.134,VALID,124,VALID,2.67969,
2003-10-04, 01:17:00,VALID,916.396,VALID,0,VALID,98.913,VALID,0,VALID,20.1631,VALID,109,VALID,1.87179,
2003-10-04, 01:18:00,VALID,916.413,VALID,0,VALID,98.8889,VALID,-0.0339617,VALID,20.1994,VALID,88,VALID,1.25231,
2003-10-04, 01:19:00,VALID,916.402,VALID,0,VALID,98.8304,VALID,0,VALID,20.1892,VALID,105,VALID,1.42844,
2003-10-04, 01:20:00,VALID,916.386,VALID,0,VALID,98.8647,VALID,0,VALID,20.1728,VALID,100,VALID,1.02725,
2003-10-04, 01:21:00,VALID,916.371,VALID,0,VALID,98.8787,VALID,-0.0169808,VALID,20.1434,VALID,118,VALID,1.53888,
2003-10-04, 01:22:00,VALID,916.355,VALID,0,VALID,98.8749,VALID,0,VALID,20.1238,VALID,120,VALID,1.80376,
2003-10-04, 01:23:00,VALID,916.333,VALID,0,VALID,98.9245,VALID,-0.0169808,VALID,20.1308,VALID,123,VALID,1.36107,
2003-10-04, 01:24:00,VALID,916.328,VALID,0,VALID,98.9232,VALID,0,VALID,20.1114,VALID,123,VALID,1.41071,
2003-10-04, 01:25:00,VALID,916.314,VALID,0,VALID,98.894,VALID,-0.0169808,VALID,20.1146,VALID,130,VALID,1.84623,
2003-10-04, 01:26:00,VALID,916.297,VALID,0,VALID,98.7821,VALID,-0.0339617,VALID,20.1211,VALID,120,VALID,2.0026,
2003-10-04, 01:27:00,VALID,916.292,VALID,0,VALID,98.6358,VALID,0,VALID,20.1275,VALID,131,VALID,2.66758,
2003-10-04, 01:28:00,VALID,916.293,VALID,0,VALID,98.4502,VALID,0,VALID,20.1661,VALID,118,VALID,2.18601,
2003-10-04, 01:29:00,VALID,916.27,VALID,0,VALID,98.206,VALID,0,VALID,20.2078,VALID,118,VALID,2.41445,
2003-10-04, 01:30:00,VALID,916.27,VALID,0,VALID,97.9403,VALID,0,VALID,20.2433,VALID,125,VALID,2.60738,
2003-10-04, 01:31:00,VALID,916.249,VALID,0,VALID,97.7368,VALID,0,VALID,20.2823,VALID,135,VALID,2.51239,
2003-10-04, 01:32:00,VALID,916.237,VALID,0,VALID,97.6274,VALID,-0.0339617,VALID,20.3117,VALID,137,VALID,2.11395,
2003-10-04, 01:33:00,VALID,916.216,VALID,0,VALID,97.5473,VALID,-0.0169808,VALID,20.3047,VALID,129,VALID,2.4016,
2003-10-04, 01:34:00,VALID,916.211,VALID,0,VALID,97.4863,VALID,0,VALID,20.3151,VALID,129,VALID,2.33296,
2003-10-04, 01:35:00,VALID,916.194,VALID,0,VALID,97.5206,VALID,-0.0169808,VALID,20.331,VALID,139,VALID,1.5041,
2003-10-04, 01:36:00,VALID,916.167,VALID,0,VALID,97.6084,VALID,0,VALID,20.3179,VALID,156,VALID,1.59102,
2003-10-04, 01:37:00,VALID,916.16,VALID,0,VALID,97.5906,VALID,0,VALID,20.299,VALID,154,VALID,2.23913,
2003-10-04, 01:38:00,VALID,916.141,VALID,0,VALID,97.5283,VALID,0,VALID,20.2888,VALID,141,VALID,1.90454,
2003-10-04, 01:39:00,VALID,916.135,VALID,0,VALID,97.6211,VALID,-0.0339617,VALID,20.3022,VALID,141,VALID,1.54111,
2003-10-04, 01:40:00,VALID,916.132,VALID,0,VALID,97.6465,VALID,-0.0339617,VALID,20.2925,VALID,126,VALID,1.7342,
2003-10-04, 01:41:00,VALID,916.138,VALID,0,VALID,97.6211,VALID,0,VALID,20.2694,VALID,138,VALID,2.04545,
2003-10-04, 01:42:00,VALID,916.133,VALID,0,VALID,97.7368,VALID,-0.0169808,VALID,20.2764,VALID,122,VALID,1.25117,
2003-10-04, 01:43:00,VALID,916.107,VALID,0,VALID,97.8055,VALID,-0.0169808,VALID,20.257,VALID,128,VALID,1.55682,
2003-10-04, 01:44:00,VALID,916.094,VALID,0,VALID,97.8563,VALID,0,VALID,20.2471,VALID,122,VALID,1.64528,
2003-10-04, 01:45:00,VALID,916.079,VALID,0,VALID,97.8792,VALID,0,VALID,20.221,VALID,122,VALID,2.19345,
2003-10-04, 01:46:00,VALID,916.063,VALID,0,VALID,97.9428,VALID,0,VALID,20.208,VALID,129,VALID,2.15086,
2003-10-04, 01:47:00,VALID,916.044,VALID,0,VALID,97.8563,VALID,0,VALID,20.1919,VALID,129,VALID,2.80573,
2003-10-04, 01:48:00,VALID,916.017,VALID,0,VALID,97.8309,VALID,0,VALID,20.2013,VALID,137,VALID,1.70465,
2003-10-04, 01:49:00,VALID,915.989,VALID,0,VALID,97.9034,VALID,-0.0169808,VALID,20.2108,VALID,133,VALID,2.03437,
2003-10-04, 01:50:00,VALID,915.962,VALID,0,VALID,97.9212,VALID,0,VALID,20.1949,VALID,124,VALID,2.3283,
2003-10-04, 01:51:00,VALID,915.927,VALID,0,VALID,97.8868,VALID,0,VALID,20.1817,VALID,118,VALID,2.39539,
2003-10-04, 01:52:00,VALID,915.925,VALID,0,VALID,97.9059,VALID,0,VALID,20.1956,VALID,128,VALID,2.12881,
2003-10-04, 01:53:00,VALID,915.905,VALID,0,VALID,97.9288,VALID,0,VALID,20.1949,VALID,128,VALID,1.87054,
2003-10-04, 01:54:00,VALID,915.878,VALID,0,VALID,97.9657,VALID,-0.0169808,VALID,20.1986,VALID,113,VALID,1.90807,
2003-10-04, 01:55:00,VALID,915.876,VALID,0,VALID,98.056,VALID,0,VALID,20.1792,VALID,112,VALID,1.76422,
2003-10-04, 01:56:00,VALID,915.859,VALID,0,VALID,98.1997,VALID,-0.0169808,VALID,20.1534,VALID,118,VALID,2.1689,
2003-10-04, 01:57:00,VALID,915.843,VALID,0,VALID,98.3459,VALID,0,VALID,20.1213,VALID,122,VALID,2.5902,
2003-10-04, 01:58:00,VALID,915.826,VALID,0,VALID,98.4972,VALID,-0.0339617,VALID,20.092,VALID,133,VALID,2.15774,
2003-10-04, 01:59:00,VALID,915.804,VALID,0,VALID,98.5888,VALID,0,VALID,20.0657,VALID,139,VALID,1.95605,
2003-10-04, 02:00:00,VALID,915.802,VALID,0,VALID,98.6485,VALID,-0.0169808,VALID,20.0562,VALID,143,VALID,2.1668,
2003-10-04, 02:01:00,VALID,915.821,VALID,0,VALID,98.6078,VALID,-0.0169808,VALID,20.0657,VALID,135,VALID,2.40625,
2003-10-04, 02:02:00,VALID,915.82,VALID,0,VALID,98.4794,VALID,0,VALID,20.0883,VALID,131,VALID,2.38523,
2003-10-04, 02:03:00,VALID,915.839,VALID,0,VALID,98.4298,VALID,0,VALID,20.1176,VALID,138,VALID,1.32143,
2003-10-04, 02:04:00,VALID,915.833,VALID,0,VALID,98.3446,VALID,0.0169808,VALID,20.1238,VALID,147,VALID,1.83777,
2003-10-04, 02:05:00,VALID,915.836,VALID,0,VALID,98.3319,VALID,0,VALID,20.1206,VALID,134,VALID,1.62805,
2003-10-04, 02:06:00,VALID,915.844,VALID,0,VALID,98.3243,VALID,-0.0339617,VALID,20.1208,VALID,140,VALID,1.42951,
2003-10-04, 02:07:00,VALID,915.845,VALID,0,VALID,98.2582,VALID,0,VALID,20.1206,VALID,138,VALID,1.9013,
2003-10-04, 02:08:00,VALID,915.833,VALID,0,VALID,98.2264,VALID,0,VALID,20.1405,VALID,129,VALID,1.37378,
2003-10-04, 02:09:00,VALID,915.82,VALID,0,VALID,98.1793,VALID,0,VALID,20.1429,VALID,130,VALID,1.84197,
2003-10-04, 02:10:00,VALID,915.818,VALID,0,VALID,98.0979,VALID,-0.0169808,VALID,20.1464,VALID,127,VALID,1.8391,
2003-10-04, 02:11:00,VALID,915.797,VALID,0,VALID,98.0242,VALID,0.0169808,VALID,20.1623,VALID,131,VALID,2.31064,
2003-10-04, 02:12:00,VALID,915.797,VALID,0,VALID,97.9377,VALID,0,VALID,20.1655,VALID,132,VALID,2.45313,
2003-10-04, 02:13:00,VALID,915.762,VALID,0,VALID,97.7762,VALID,0.0169808,VALID,20.1852,VALID,135,VALID,2.53125,
2003-10-04, 02:14:00,VALID,915.748,VALID,0,VALID,97.5817,VALID,0,VALID,20.2113,VALID,130,VALID,2.754,
2003-10-04, 02:15:00,VALID,915.735,VALID,0,VALID,97.354,VALID,0,VALID,20.2495,VALID,135,VALID,2.72148,
2003-10-04, 02:16:00,VALID,915.718,VALID,0,VALID,97.0107,VALID,-0.0169808,VALID,20.2856,VALID,134,VALID,2.9355,
2003-10-04, 02:17:00,VALID,915.71,VALID,0,VALID,96.6508,VALID,0,VALID,20.3571,VALID,137,VALID,2.84193,
2003-10-04, 02:18:00,VALID,915.702,VALID,0,VALID,96.2579,VALID,-0.0169808,VALID,20.3916,VALID,128,VALID,2.50955,
2003-10-04, 02:19:00,VALID,915.689,VALID,0,VALID,96.1193,VALID,0,VALID,20.4401,VALID,126,VALID,2.34066,
2003-10-04, 02:20:00,VALID,915.674,VALID,0,VALID,96.0456,VALID,0,VALID,20.463,VALID,136,VALID,2.59557,
2003-10-04, 02:21:00,VALID,915.691,VALID,0,VALID,96.0481,VALID,0,VALID,20.4562,VALID,136,VALID,2.70351,
2003-10-04, 02:22:00,VALID,915.671,VALID,0,VALID,95.9476,VALID,0,VALID,20.4727,VALID,131,VALID,2.69425,
2003-10-04, 02:23:00,VALID,915.657,VALID,0,VALID,95.8892,VALID,0,VALID,20.4624,VALID,131,VALID,1.88594,
2003-10-04, 02:24:00,VALID,915.647,VALID,0,VALID,95.7595,VALID,0.0169808,VALID,20.492,VALID,139,VALID,2.09623,
2003-10-04, 02:25:00,VALID,915.647,VALID,0,VALID,95.7188,VALID,0,VALID,20.4982,VALID,144,VALID,1.66346,
2003-10-04, 02:26:00,VALID,915.645,VALID,0,VALID,95.6806,VALID,0,VALID,20.5052,VALID,136,VALID,1.70737,
2003-10-04, 02:27:00,VALID,915.643,VALID,0,VALID,95.4873,VALID,0,VALID,20.505,VALID,145,VALID,2.51334,
2003-10-04, 02:28:00,VALID,915.628,VALID,0,VALID,95.5433,VALID,0.0169808,VALID,20.5243,VALID,149,VALID,1.92333,
2003-10-04, 02:29:00,VALID,915.634,VALID,0,VALID,95.6374,VALID,-0.0169808,VALID,20.5179,VALID,144,VALID,2.08929,
2003-10-04, 02:30:00,VALID,915.64,VALID,0,VALID,95.8078,VALID,0,VALID,20.4918,VALID,141,VALID,1.81686,
2003-10-04, 02:31:00,VALID,915.626,VALID,0,VALID,95.9311,VALID,-0.0169808,VALID,20.4759,VALID,136,VALID,2.04557,
2003-10-04, 02:32:00,VALID,915.625,VALID,0,VALID,95.9655,VALID,0,VALID,20.4565,VALID,140,VALID,2.55948,
2003-10-04, 02:33:00,VALID,915.619,VALID,0,VALID,95.9705,VALID,0,VALID,20.4468,VALID,141,VALID,2.02496,
2003-10-04, 02:34:00,VALID,915.608,VALID,0,VALID,96.099,VALID,0,VALID,20.4369,VALID,136,VALID,2.11998,
2003-10-04, 02:35:00,VALID,915.603,VALID,0,VALID,96.2261,VALID,-0.0169808,VALID,20.4175,VALID,138,VALID,1.96966,
2003-10-04, 02:36:00,VALID,915.605,VALID,0,VALID,96.2884,VALID,0,VALID,20.4043,VALID,141,VALID,1.85785,
2003-10-04, 02:37:00,VALID,915.618,VALID,0,VALID,96.3329,VALID,0,VALID,20.3919,VALID,149,VALID,1.75176,
2003-10-04, 02:38:00,VALID,915.63,VALID,0,VALID,96.1689,VALID,0.0169808,VALID,20.3852,VALID,136,VALID,2.1121,
2003-10-04, 02:39:00,VALID,915.627,VALID,0,VALID,96.1219,VALID,0,VALID,20.408,VALID,141,VALID,1.6343,
2003-10-04, 02:40:00,VALID,915.625,VALID,0,VALID,96.1346,VALID,0,VALID,20.4272,VALID,131,VALID,1.62845,
2003-10-04, 02:41:00,VALID,915.639,VALID,0,VALID,96.0201,VALID,0,VALID,20.4272,VALID,147,VALID,2.00896,
2003-10-04, 02:42:00,VALID,915.645,VALID,0,VALID,95.9451,VALID,-0.0339617,VALID,20.4304,VALID,145,VALID,1.87645,
2003-10-04, 02:43:00,VALID,915.63,VALID,0,VALID,96.0761,VALID,-0.0169808,VALID,20.4433,VALID,131,VALID,1.5261,
2003-10-04, 02:44:00,VALID,915.628,VALID,0,VALID,96.235,VALID,0,VALID,20.4272,VALID,139,VALID,1.75568,
2003-10-04, 02:45:00,VALID,915.614,VALID,0,VALID,96.3698,VALID,0,VALID,20.4083,VALID,139,VALID,1.98516,
2003-10-04, 02:46:00,VALID,915.593,VALID,0,VALID,96.4677,VALID,0,VALID,20.3723,VALID,138,VALID,1.95094,
2003-10-04, 02:47:00,VALID,915.592,VALID,0,VALID,96.5148,VALID,-0.0169808,VALID,20.3658,VALID,130,VALID,2.61028,
2003-10-04, 02:48:00,VALID,915.578,VALID,0,VALID,96.6292,VALID,0,VALID,20.3561,VALID,134,VALID,1.79018,
2003-10-04, 02:49:00,VALID,915.564,VALID,0,VALID,96.7704,VALID,-0.0169808,VALID,20.337,VALID,135,VALID,1.98903,
2003-10-04, 02:50:00,VALID,915.547,VALID,0,VALID,96.9103,VALID,0.0169808,VALID,20.3111,VALID,133,VALID,2.1377,
2003-10-04, 02:51:00,VALID,915.516,VALID,0,VALID,97.0145,VALID,0,VALID,20.3017,VALID,134,VALID,2.26677,
2003-10-04, 02:52:00,VALID,915.491,VALID,0,VALID,97.0539,VALID,0,VALID,20.2791,VALID,128,VALID,1.8869,
2003-10-04, 02:53:00,VALID,915.483,VALID,0,VALID,96.9764,VALID,0,VALID,20.2791,VALID,134,VALID,2.17168,
2003-10-04, 02:54:00,VALID,915.474,VALID,0,VALID,96.9141,VALID,0,VALID,20.2883,VALID,137,VALID,2.2818,
2003-10-04, 02:55:00,VALID,915.458,VALID,0,VALID,96.8263,VALID,0,VALID,20.3015,VALID,125,VALID,2.18083,
2003-10-04, 02:56:00,VALID,915.46,VALID,0,VALID,96.8276,VALID,0,VALID,20.3109,VALID,118,VALID,1.96016,
2003-10-04, 02:57:00,VALID,915.441,VALID,0,VALID,96.9192,VALID,0.0169808,VALID,20.3111,VALID,118,VALID,1.65796,
2003-10-04, 02:58:00,VALID,915.435,VALID,0,VALID,96.9738,VALID,-0.0169808,VALID,20.3015,VALID,121,VALID,1.76835,
2003-10-04, 02:59:00,VALID,915.421,VALID,0,VALID,96.9688,VALID,0.0169808,VALID,20.2918,VALID,126,VALID,1.63181,
2003-10-04, 03:00:00,VALID,915.405,VALID,0,VALID,96.8861,VALID,0,VALID,20.292,VALID,126,VALID,1.8105,
2003-10-04, 03:01:00,VALID,915.378,VALID,0,VALID,96.7462,VALID,0,VALID,20.3079,VALID,142,VALID,1.83501,
2003-10-04, 03:02:00,VALID,915.353,VALID,0,VALID,96.6966,VALID,0,VALID,20.3241,VALID,126,VALID,1.91061,
2003-10-04, 03:03:00,VALID,915.336,VALID,0,VALID,96.6725,VALID,0,VALID,20.344,VALID,122,VALID,1.67299,
2003-10-04, 03:04:00,VALID,915.292,VALID,0,VALID,96.6127,VALID,0,VALID,20.3273,VALID,139,VALID,1.92685,
2003-10-04, 03:05:00,VALID,915.255,VALID,0,VALID,96.6992,VALID,0,VALID,20.3303,VALID,155,VALID,1.19661,
2003-10-04, 03:06:00,VALID,915.253,VALID,0,VALID,96.7767,VALID,0,VALID,20.3273,VALID,141,VALID,1.02521,
2003-10-04, 03:07:00,VALID,915.216,VALID,0,VALID,96.8314,VALID,0,VALID,20.3171,VALID,141,VALID,1.24291,
2003-10-04, 03:08:00,VALID,915.199,VALID,0,VALID,96.8874,VALID,0,VALID,20.3111,VALID,128,VALID,0.792151,
2003-10-04, 03:09:00,VALID,915.186,VALID,0,VALID,96.9344,VALID,-0.0169808,VALID,20.2985,VALID,142,VALID,1.20803,
2003-10-04, 03:10:00,VALID,915.175,VALID,0,VALID,96.9141,VALID,0,VALID,20.2851,VALID,148,VALID,1.08947,
2003-10-04, 03:11:00,VALID,915.167,VALID,0,VALID,96.9548,VALID,0,VALID,20.2816,VALID,155,VALID,0.867527,
2003-10-04, 03:12:00,VALID,915.16,VALID,0,VALID,96.8518,VALID,0,VALID,20.2851,VALID,155,VALID,1.03403,
2003-10-04, 03:13:00,VALID,915.17,VALID,0,VALID,96.7996,VALID,0,VALID,20.2982,VALID,166,VALID,0.870916,
2003-10-04, 03:14:00,VALID,915.183,VALID,0,VALID,96.7449,VALID,0.0169808,VALID,20.3009,VALID,135,VALID,0.755335,
2003-10-04, 03:15:00,VALID,915.204,VALID,0,VALID,96.6865,VALID,0,VALID,20.3012,VALID,145,VALID,0.907924,
2003-10-04, 03:16:00,VALID,915.204,VALID,0,VALID,96.5669,VALID,0,VALID,20.3144,VALID,158,VALID,0.741987,
2003-10-04, 03:17:00,VALID,915.224,VALID,0,VALID,96.5885,VALID,-0.0169808,VALID,20.3273,VALID,120,VALID,0.838481,
2003-10-04, 03:18:00,VALID,915.227,VALID,0,VALID,96.6013,VALID,0.0169808,VALID,20.3276,VALID,132,VALID,1.33365,
2003-10-04, 03:19:00,VALID,915.235,VALID,0,VALID,96.0799,VALID,0,VALID,20.3208,VALID,127,VALID,1.75915,
2003-10-04, 03:20:00,VALID,915.253,VALID,0,VALID,95.6463,VALID,-0.0169808,VALID,20.379,VALID,134,VALID,1.40116,
2003-10-04, 03:21:00,VALID,915.261,VALID,0,VALID,95.2025,VALID,0.0169808,VALID,20.4336,VALID,116,VALID,1.56559,
2003-10-04, 03:22:00,VALID,915.258,VALID,0,VALID,94.409,VALID,0,VALID,20.5114,VALID,105,VALID,1.46113,
2003-10-04, 03:23:00,VALID,915.263,VALID,0,VALID,94.2323,VALID,0,VALID,20.6083,VALID,86,VALID,1.44422,
2003-10-04, 03:24:00,VALID,915.246,VALID,0,VALID,94.2094,VALID,0,VALID,20.6371,VALID,89,VALID,1.43877,
2003-10-04, 03:25:00,VALID,915.252,VALID,0,VALID,94.1801,VALID,0,VALID,20.6436,VALID,105,VALID,1.42262,
2003-10-04, 03:26:00,VALID,915.24,VALID,0,VALID,94.2984,VALID,0,VALID,20.6304,VALID,85,VALID,1.40253,
2003-10-04, 03:27:00,VALID,915.231,VALID,0,VALID,94.437,VALID,0.0169808,VALID,20.6212,VALID,107,VALID,1.45494,
2003-10-04, 03:28:00,VALID,915.226,VALID,0,VALID,94.8986,VALID,0,VALID,20.5984,VALID,122,VALID,1.92315,
2003-10-04, 03:29:00,VALID,915.234,VALID,0,VALID,94.8808,VALID,0.0169808,VALID,20.5658,VALID,113,VALID,1.72885,
2003-10-04, 03:30:00,VALID,915.225,VALID,0,VALID,95.0652,VALID,0,VALID,20.5402,VALID,129,VALID,2.07946,
2003-10-04, 03:31:00,VALID,915.235,VALID,0,VALID,94.9889,VALID,0,VALID,20.5243,VALID,125,VALID,2.14882,
2003-10-04, 03:32:00,VALID,915.243,VALID,0,VALID,94.9342,VALID,0.0169808,VALID,20.5246,VALID,125,VALID,1.72656,
2003-10-04, 03:33:00,VALID,915.254,VALID,0,VALID,94.9685,VALID,-0.0509425,VALID,20.5087,VALID,133,VALID,1.61944,
2003-10-04, 03:34:00,VALID,915.259,VALID,0,VALID,94.601,VALID,-0.0849042,VALID,20.5256,VALID,126,VALID,2.27224,
2003-10-04, 03:35:00,VALID,915.254,VALID,0,VALID,94.381,VALID,-0.101885,VALID,20.5649,VALID,136,VALID,1.73285,
2003-10-04, 03:36:00,VALID,915.255,VALID,0,VALID,94.2704,VALID,-0.101885,VALID,20.6099,VALID,122,VALID,1.64101,
2003-10-04, 03:37:00,VALID,915.244,VALID,0,VALID,94.5247,VALID,-0.0679233,VALID,20.6059,VALID,106,VALID,1.23457,
2003-10-04, 03:38:00,VALID,915.243,VALID,0,VALID,94.7536,VALID,-0.101885,VALID,20.5873,VALID,121,VALID,1.54688,
2003-10-04, 03:39:00,VALID,915.255,VALID,0,VALID,95.0397,VALID,-0.0509425,VALID,20.5448,VALID,127,VALID,1.56836,
2003-10-04, 03:40:00,VALID,915.254,VALID,0,VALID,95.3131,VALID,-0.0679233,VALID,20.4988,VALID,102,VALID,1.11119,
2003-10-04, 03:41:00,VALID,915.269,VALID,0,VALID,95.4911,VALID,-0.0509425,VALID,20.4675,VALID,123,VALID,1.35,
2003-10-04, 03:42:00,VALID,915.257,VALID,0,VALID,95.6081,VALID,-0.0849042,VALID,20.4352,VALID,128,VALID,1.57031,
2003-10-04, 03:43:00,VALID,915.256,VALID,0,VALID,95.7722,VALID,-0.101885,VALID,20.419,VALID,127,VALID,1.34299,
2003-10-04, 03:44:00,VALID,915.255,VALID,0,VALID,95.9209,VALID,-0.101885,VALID,20.3962,VALID,125,VALID,1.82908,